CW8284 Weather Reports


Display with metric or nautical units.
time (UTC)temp
F
wind
direction
speed
MPH
gust
MPH
rain 1hr
in
rain 24hr
in
rain mn
in
humidity
%
barometer
mb
20260901071019 64 225 0.0 0.0 0.00 0.00 0.00 1013.0
20260901070919 64 202 0.0 0.0 0.00 0.00 0.00 1013.1
20260901065618 63 202 0.0 0.0 0.00 0.00 0.00 1012.8
20260901065518 63 225 0.0 0.0 0.00 0.00 0.00 1012.8
20260901065419 63 202 0.0 0.0 0.00 0.00 0.00 1012.9
20260901065319 63 180 0.0 0.0 0.00 0.00 0.00 1012.8
20260901064319 63 292 0.0 0.0 0.00 0.00 0.00 1012.6
20260901064219 63 292 0.0 0.0 0.00 0.00 0.00 1012.6
20260901062619 65 157 0.0 0.0 0.00 0.00 0.00 1012.7
20260901062218 65 157 0.0 0.0 0.00 0.00 0.00 1012.7
20260901061819 65 157 0.0 0.0 0.00 0.00 0.00 1012.5
20260901061719 66 247 0.0 0.0 0.00 0.00 0.00 1012.8
20260901061618 66 157 0.0 0.0 0.00 0.00 0.00 1012.8
20260901061219 66 225 1.0 2.0 0.00 0.00 0.00 1012.8
20260901061119 66 270 1.0 1.0 0.00 0.00 0.00 1012.7
20260901060419 66 225 1.0 3.0 0.00 0.00 0.00 1012.6
20260901060319 66 180 1.0 2.0 0.00 0.00 0.00 1012.8
20260901060219 66 270 1.0 2.0 0.00 0.00 0.00 1012.7
20260901060118 66 225 1.0 2.0 0.00 0.00 0.00 1012.5
20260901055418 67 180 0.0 1.0 0.00 0.00 0.00 1012.8
20260901055019 67 247 0.0 2.0 0.00 0.00 0.00 1012.6
20260901054919 67 180 0.0 0.0 0.00 0.00 0.00 1012.7
20260901054818 67 180 0.0 1.0 0.00 0.00 0.00 1012.5
20260901054418 67 225 1.0 2.0 0.00 0.00 0.00 1012.7
20260901054318 67 180 0.0 1.0 0.00 0.00 0.00 1012.7
20260901054219 67 202 0.0 0.0 0.00 0.00 0.00 1012.5
20260901054119 67 225 0.0 0.0 0.00 0.00 0.00 1012.7
20260901053119 68 202 2.0 3.0 0.00 0.00 0.00 1012.5
20260901053019 68 202 1.0 2.0 0.00 0.00 0.00 1012.6
20260901052919 68 225 1.0 2.0 0.00 0.00 0.00 1012.6
20260901052818 68 202 2.0 3.0 0.00 0.00 0.00 1012.6
20260901052418 68 157 2.0 4.0 0.00 0.00 0.00 1012.6
20260901051719 68 202 3.0 4.0 0.00 0.00 0.00 1012.4
20260901051619 68 202 1.0 2.0 0.00 0.00 0.00 1012.5
20260901050919 68 225 0.0 3.0 0.00 0.00 0.00 1012.3
20260901050518 68 202 0.0 1.0 0.00 0.00 0.00 1012.3
20260901050118 68 225 0.0 0.0 0.00 0.00 0.00 1012.2
20260901050019 68 202 0.0 0.0 0.00 0.00 0.00 1012.2
20260901044719 69 225 0.0 0.0 0.00 0.00 0.00 1012.3
20260901043419 69 247 1.0 2.0 0.00 0.00 0.00 1012.0
20260901043319 69 225 2.0 2.0 0.00 0.00 0.00 1012.0
20260901042918 69 157 0.0 1.0 0.00 0.00 0.00 1011.9
20260901042518 69 180 1.0 1.0 0.00 0.00 0.00 1011.9
20260901041818 70 135 0.0 0.0 0.00 0.00 0.00 1011.9
20260901041419 70 135 0.0 0.0 0.00 0.00 0.00 1011.9
20260901035519 71 202 0.0 0.0 0.00 0.00 0.00 1011.7
20260901034819 71 225 1.0 1.0 0.00 0.00 0.00 1011.7
20260901034719 71 202 0.0 1.0 0.00 0.00 0.00 1011.6
20260901034619 71 225 0.0 0.0 0.00 0.00 0.00 1011.6
20260901034518 71 180 0.0 1.0 0.00 0.00 0.00 1011.6
20260901034419 72 225 2.0 3.0 0.00 0.00 0.00 1011.4
20260901034318 72 225 2.0 3.0 0.00 0.00 0.00 1011.4
20260901033919 72 225 1.0 1.0 0.00 0.00 0.00 1011.4
20260901033819 72 202 2.0 2.0 0.00 0.00 0.00 1011.3
20260901033719 72 247 0.0 2.0 0.00 0.00 0.00 1011.3
20260901033318 72 202 1.0 2.0 0.00 0.00 0.00 1011.3
20260901033218 72 135 1.0 2.0 0.00 0.00 0.00 1011.2
20260901033118 72 225 1.0 1.0 0.00 0.00 0.00 1010.9
20260901033019 72 225 2.0 3.0 0.00 0.00 0.00 1011.0
20260901032919 72 225 0.0 1.0 0.00 0.00 0.00 1010.9
20260901032519 73 225 2.0 4.0 0.00 0.00 0.00 1010.8
20260901032418 73 270 2.0 3.0 0.00 0.00 0.00 1010.8
20260901032019 73 202 3.0 5.0 0.00 0.00 0.00 1010.8
20260901030719 74 225 2.0 4.0 0.00 0.00 0.00 1010.8
20260901030319 74 180 3.0 4.0 0.00 0.00 0.00 1010.7
20260901030219 74 180 1.0 2.0 0.00 0.00 0.00 1010.8
20260901030119 74 225 2.0 3.0 0.00 0.00 0.00 1010.5
20260901025118 74 180 2.0 3.0 0.00 0.00 0.00 1010.5
20260901025019 74 247 3.0 5.0 0.00 0.00 0.00 1010.5
20260901024619 75 180 3.0 5.0 0.00 0.00 0.00 1010.7
20260901024219 75 202 3.0 5.0 0.00 0.00 0.00 1010.9
20260901023219 75 202 3.0 4.0 0.00 0.00 0.00 1010.7
20260901023118 75 247 2.0 4.0 0.00 0.00 0.00 1010.7
20260901023019 76 202 2.0 2.0 0.00 0.00 0.00 1010.6
20260901022918 76 270 4.0 6.0 0.00 0.00 0.00 1010.8
20260901022819 76 247 3.0 4.0 0.00 0.00 0.00 1010.7
20260901022419 76 157 4.0 5.0 0.00 0.00 0.00 1010.8
20260901022319 76 225 4.0 6.0 0.00 0.00 0.00 1010.7
20260901022219 76 225 4.0 6.0 0.00 0.00 0.00 1010.8
20260901021519 77 292 4.0 5.0 0.00 0.00 0.00 1010.8
20260901021419 77 135 5.0 6.0 0.00 0.00 0.00 1010.8
20260901021319 77 225 3.0 5.0 0.00 0.00 0.00 1010.7
20260901021219 77 225 6.0 8.0 0.00 0.00 0.00 1010.5
20260901021119 77 225 4.0 7.0 0.00 0.00 0.00 1010.6
20260901020419 77 202 4.0 6.0 0.00 0.00 0.00 1010.5
20260901020019 78 225 3.0 6.0 0.00 0.00 0.00 1010.5
20260901015919 78 202 3.0 5.0 0.00 0.00 0.00 1010.7
20260901015519 78 157 2.0 4.0 0.00 0.00 0.00 1010.5
20260901015418 78 180 4.0 6.0 0.00 0.00 0.00 1010.7
20260901013819 79 157 4.0 6.0 0.00 0.00 0.00 1010.5
20260901013419 80 202 4.0 6.0 0.00 0.00 0.00 1010.5
20260901013019 80 225 5.0 7.0 0.00 0.00 0.00 1010.4
20260901012919 80 202 5.0 7.0 0.00 0.00 0.00 1010.6
20260901012519 81 180 4.0 5.0 0.00 0.00 0.00 1010.6
20260901012419 81 225 3.0 4.0 0.00 0.00 0.00 1010.7
20260901011719 81 225 3.0 7.0 0.00 0.00 0.00 1010.6
20260901011619 81 202 2.0 3.0 0.00 0.00 0.00 1010.6
20260901011519 81 180 3.0 4.0 0.00 0.00 0.00 1010.6
20260901011418 81 225 2.0 4.0 0.00 0.00 0.00 1010.6
20260901010119 82 202 3.0 5.0 0.00 0.00 0.00 1010.6
20260901005419 83 180 1.0 2.0 0.00 0.00 0.00 1010.7
20260901005019 83 157 4.0 6.0 0.00 0.00 0.00 1010.4
20260901004919 83 247 4.0 8.0 0.00 0.00 0.00 1010.3
20260901004819 83 135 5.0 8.0 0.00 0.00 0.00 1010.6
20260901004719 83 225 4.0 6.0 0.00 0.00 0.00 1010.3
20260901004619 83 225 3.0 5.0 0.00 0.00 0.00 1010.5
20260901004518 84 202 4.0 6.0 0.00 0.00 0.00 1010.5
20260901004419 84 225 2.0 6.0 0.00 0.00 0.00 1010.4
20260901004018 84 225 4.0 6.0 0.00 0.00 0.00 1010.4
20260901003919 84 180 2.0 2.0 0.00 0.00 0.00 1010.6
20260901003519 84 225 3.0 4.0 0.00 0.00 0.00 1010.4
20260901003119 84 225 6.0 7.0 0.00 0.00 0.00 1010.3
20260901002419 85 225 2.0 2.0 0.00 0.00 0.00 1010.3
20260901002318 85 157 2.0 3.0 0.00 0.00 0.00 1010.3
20260901002218 85 225 5.0 10.0 0.00 0.00 0.00 1010.6
20260901002119 85 202 1.0 4.0 0.00 0.00 0.00 1010.6
20260901001718 85 225 4.0 9.0 0.00 0.00 0.00 1010.3
20260901001619 85 157 1.0 5.0 0.00 0.00 0.00 1010.4
20260901001519 85 202 2.0 5.0 0.00 0.00 0.00 1010.4
20260901001118 86 225 2.0 3.0 0.00 0.00 0.00 1010.4
20260901000718 86 157 6.0 8.0 0.00 0.00 0.00 1010.5
20260901000321 86 157 1.0 4.0 0.00 0.00 0.00 1010.3
20260831235919 86 180 2.0 2.0 0.00 0.00 0.00 1010.4
20260831235819 86 112 4.0 7.0 0.00 0.00 0.00 1010.4
20260831235718 86 225 4.0 7.0 0.00 0.00 0.00 1010.4
20260831235618 86 315 3.0 7.0 0.00 0.00 0.00 1010.3
20260831235519 86 225 4.0 9.0 0.00 0.00 0.00 1010.5
20260831235419 86 157 1.0 2.0 0.00 0.00 0.00 1010.5
20260831234118 87 225 4.0 7.0 0.00 0.00 0.00 1010.5
20260831234019 87 45 1.0 3.0 0.00 0.00 0.00 1010.4
20260831233919 87 315 2.0 3.0 0.00 0.00 0.00 1010.6
20260831233818 88 157 4.0 11.0 0.00 0.00 0.00 1010.6
20260831233419 88 225 2.0 3.0 0.00 0.00 0.00 1010.5
20260831232719 89 225 2.0 3.0 0.00 0.00 0.00 1010.5
20260831232619 89 202 2.0 4.0 0.00 0.00 0.00 1010.3
20260831232219 89 247 1.0 1.0 0.00 0.00 0.00 1010.6
20260831232119 89 180 1.0 2.0 0.00 0.00 0.00 1010.2
20260831231718 89 112 3.0 8.0 0.00 0.00 0.00 1010.5
20260831231319 90 112 2.0 6.0 0.00 0.00 0.00 1010.6
20260831231219 90 157 4.0 7.0 0.00 0.00 0.00 1010.6
20260831231118 90 225 3.0 5.0 0.00 0.00 0.00 1010.6
20260831230419 92 225 3.0 6.0 0.00 0.00 0.00 1010.6
20260831230319 92 202 3.0 5.0 0.00 0.00 0.00 1010.5
20260831230218 92 202 2.0 4.0 0.00 0.00 0.00 1010.6
20260831230119 92 337 2.0 4.0 0.00 0.00 0.00 1010.5
20260831230019 92 202 3.0 5.0 0.00 0.00 0.00 1010.4
20260831225919 92 292 2.0 4.0 0.00 0.00 0.00 1010.4
20260831225819 92 225 7.0 11.0 0.00 0.00 0.00 1010.4
20260831225719 93 225 3.0 4.0 0.00 0.00 0.00 1010.6
20260831225619 93 202 3.0 5.0 0.00 0.00 0.00 1010.5
20260831225218 94 202 5.0 8.0 0.00 0.00 0.00 1010.5
20260831224818 94 157 3.0 8.0 0.00 0.00 0.00 1010.6
20260831223519 93 157 3.0 8.0 0.00 0.00 0.00 1010.5
20260831222218 93 225 6.0 10.0 0.00 0.00 0.00 1010.8
20260831221218 94 202 2.0 5.0 0.00 0.00 0.00 1010.7
20260831221118 94 202 3.0 10.0 0.00 0.00 0.00 1010.9
20260831221019 93 225 7.0 11.0 0.00 0.00 0.00 1010.8
20260831220918 93 225 2.0 3.0 0.00 0.00 0.00 1010.8
20260831215018 93 247 5.0 7.0 0.00 0.00 0.00 1011.0
20260831214019 93 292 2.0 5.0 0.00 0.00 0.00 1011.0
20260831212118 94 202 2.0 5.0 0.00 0.00 0.00 1011.0
20260831211719 93 67 1.0 2.0 0.00 0.00 0.00 1011.5
20260831211623 93 135 2.0 3.0 0.00 0.00 0.00 1011.0
20260831211518 93 202 1.0 3.0 0.00 0.00 0.00 1011.2
20260831211119 93 180 2.0 4.0 0.00 0.00 0.00 1011.3
20260831211018 93 225 2.0 4.0 0.00 0.00 0.00 1011.3
20260831210919 92 225 3.0 4.0 0.00 0.00 0.00 1011.1
20260831210819 93 225 4.0 7.0 0.00 0.00 0.00 1011.2
20260831210419 93 247 3.0 7.0 0.00 0.00 0.00 1011.3
20260831210319 93 225 2.0 4.0 0.00 0.00 0.00 1011.1
20260831210219 94 292 4.0 6.0 0.00 0.00 0.00 1011.5
20260831205219 93 202 3.0 5.0 0.00 0.00 0.00 1011.2
20260831204818 93 292 1.0 3.0 0.00 0.00 0.00 1011.3
20260831204719 93 247 1.0 2.0 0.00 0.00 0.00 1011.4
20260831204318 94 202 1.0 1.0 0.00 0.00 0.00 1011.1
20260831204218 94 202 1.0 2.0 0.00 0.00 0.00 1011.3
20260831203818 94 270 1.0 2.0 0.00 0.00 0.00 1011.3
20260831203119 93 180 1.0 1.0 0.00 0.00 0.00 1011.4
20260831203019 93 135 1.0 3.0 0.00 0.00 0.00 1011.3
20260831202919 93 112 2.0 2.0 0.00 0.00 0.00 1011.3
20260831202819 93 202 1.0 3.0 0.00 0.00 0.00 1011.2
20260831202718 93 225 2.0 4.0 0.00 0.00 0.00 1011.4
20260831202619 94 225 2.0 4.0 0.00 0.00 0.00 1011.5
20260831202518 93 315 4.0 7.0 0.00 0.00 0.00 1011.5
20260831202419 93 225 6.0 9.0 0.00 0.00 0.00 1011.3
20260831202319 93 225 2.0 3.0 0.00 0.00 0.00 1011.4
20260831202218 93 202 3.0 7.0 0.00 0.00 0.00 1011.3
20260831202118 92 202 2.0 4.0 0.00 0.00 0.00 1011.5
20260831202019 92 157 1.0 2.0 0.00 0.00 0.00 1011.4
20260831201918 91 22 1.0 2.0 0.00 0.00 0.00 1011.4
20260831200318 90 202 3.0 5.0 0.00 0.00 0.00 1011.4
20260831200219 90 247 4.0 7.0 0.00 0.00 0.00 1011.5
20260831200119 90 225 1.0 3.0 0.00 0.00 0.00 1011.5
20260831200019 90 112 2.0 3.0 0.00 0.00 0.00 1011.6
20260831195619 89 270 3.0 5.0 0.00 0.00 0.00 1011.7
20260831194919 89 202 6.0 7.0 0.00 0.00 0.00 1011.5
20260831193919 88 135 2.0 2.0 0.00 0.00 0.00 1011.9
20260831193818 88 157 2.0 4.0 0.00 0.00 0.00 1011.8
20260831193719 88 247 6.0 8.0 0.00 0.00 0.00 1011.8
20260831193619 88 225 5.0 9.0 0.00 0.00 0.00 1011.8
20260831193518 88 225 4.0 7.0 0.00 0.00 0.00 1011.9
20260831193419 88 225 5.0 6.0 0.00 0.00 0.00 1011.9
20260831193019 87 225 1.0 2.0 0.00 0.00 0.00 1011.8
20260831192919 87 157 1.0 1.0 0.00 0.00 0.00 1012.1
20260831192819 87 202 2.0 3.0 0.00 0.00 0.00 1012.0
20260831192718 87 225 2.0 4.0 0.00 0.00 0.00 1012.0
20260831192319 88 225 2.0 4.0 0.00 0.00 0.00 1011.9
20260831192219 88 135 2.0 3.0 0.00 0.00 0.00 1011.9
20260831192119 88 135 3.0 6.0 0.00 0.00 0.00 1012.1
20260831190518 86 315 3.0 5.0 0.00 0.00 0.00 1012.1
20260831190119 85 112 1.0 2.0 0.00 0.00 0.00 1012.1
20260831190019 85 135 3.0 4.0 0.00 0.00 0.00 1012.0
20260831185919 85 225 3.0 5.0 0.00 0.00 0.00 1012.0
20260831185219 86 247 0.0 1.0 0.00 0.00 0.00 1012.0
20260831185119 86 180 1.0 2.0 0.00 0.00 0.00 1012.2
20260831185019 86 157 2.0 4.0 0.00 0.00 0.00 1012.1
20260831184619 86 202 2.0 4.0 0.00 0.00 0.00 1012.2
20260831184518 86 157 2.0 4.0 0.00 0.00 0.00 1012.1
20260831183818 85 225 1.0 3.0 0.00 0.00 0.00 1012.3
20260831183718 84 202 3.0 4.0 0.00 0.00 0.00 1012.1
20260831183619 84 225 2.0 4.0 0.00 0.00 0.00 1012.2
20260831183219 83 202 3.0 4.0 0.00 0.00 0.00 1012.0
20260831183118 84 202 3.0 4.0 0.00 0.00 0.00 1012.2
20260831183018 84 225 3.0 5.0 0.00 0.00 0.00 1012.2
20260831182618 85 225 2.0 4.0 0.00 0.00 0.00 1012.1
20260831182219 85 315 3.0 4.0 0.00 0.00 0.00 1012.3
20260831181819 86 225 4.0 6.0 0.00 0.00 0.00 1012.2
20260831181718 85 225 2.0 3.0 0.00 0.00 0.00 1012.3
20260831181018 84 22 2.0 4.0 0.00 0.00 0.00 1012.5
20260831180918 84 337 1.0 3.0 0.00 0.00 0.00 1012.3
20260831180519 84 202 2.0 3.0 0.00 0.00 0.00 1012.4
20260831173419 82 135 1.0 1.0 0.00 0.00 0.00 1012.5
20260831173019 82 225 0.0 1.0 0.00 0.00 0.00 1012.5
20260831172918 82 135 2.0 4.0 0.00 0.00 0.00 1012.5
20260831171619 85 157 1.0 2.0 0.00 0.00 0.00 1012.6
20260831165419 82 157 1.0 2.0 0.00 0.00 0.00 1012.4
20260831165319 82 180 1.0 1.0 0.00 0.00 0.00 1012.5
20260831164618 81 67 0.0 0.0 0.00 0.00 0.00 1012.4
20260831164518 81 225 0.0 1.0 0.00 0.00 0.00 1012.4
20260831164118 81 337 2.0 2.0 0.00 0.00 0.00 1012.3
20260831164018 81 292 1.0 2.0 0.00 0.00 0.00 1012.3
20260831163919 81 45 1.0 1.0 0.00 0.00 0.00 1012.3
20260831163818 81 22 2.0 2.0 0.00 0.00 0.00 1012.3
20260831162819 79 315 0.0 2.0 0.00 0.00 0.00 1012.2
20260831162419 78 180 1.0 2.0 0.00 0.00 0.00 1012.5
20260831162319 78 157 1.0 2.0 0.00 0.00 0.00 1012.5
20260831162218 77 135 1.0 2.0 0.00 0.00 0.00 1012.5
20260831161819 78 225 2.0 4.0 0.00 0.00 0.00 1012.4
20260831161119 78 225 0.0 2.0 0.00 0.00 0.00 1012.4
20260831160119 77 157 0.0 2.0 0.00 0.00 0.00 1012.1
20260831154819 75 225 3.0 4.0 0.00 0.00 0.00 1012.2
20260831154420 76 270 1.0 2.0 0.00 0.00 0.00 1012.2
20260831153420 75 225 0.0 1.0 0.00 0.00 0.00 1012.2
20260831153319 75 225 1.0 2.0 0.00 0.00 0.00 1012.4
20260831152920 74 202 0.0 1.0 0.00 0.00 0.00 1012.1
20260831152819 73 225 0.0 1.0 0.00 0.00 0.00 1012.0
20260831151819 74 202 0.0 0.0 0.00 0.00 0.00 1012.2
20260831150819 77 180 0.0 1.0 0.00 0.00 0.00 1012.0
20260831145921 74 225 0.0 1.0 0.00 0.00 0.00 1011.9
20260831145818 73 225 0.0 1.0 0.00 0.00 0.00 1012.0
20260831145720 73 202 0.0 1.0 0.00 0.00 0.00 1011.9
20260831144718 75 180 0.0 0.0 0.00 0.00 0.00 1012.0
20260831143420 74 45 0.0 0.0 0.00 0.00 0.00 1011.9
20260831143318 74 45 0.0 0.0 0.00 0.00 0.00 1012.0
20260831143219 73 45 0.0 0.0 0.00 0.00 0.00 1012.0
20260831142818 72 315 0.0 0.0 0.00 0.00 0.00 1011.8
20260831142718 72 315 0.0 0.0 0.00 0.00 0.00 1011.8
20260831142619 72 315 0.0 0.0 0.00 0.00 0.00 1011.6
20260831141919 69 315 0.0 0.0 0.00 0.00 0.00 1011.8
20260831141819 69 315 0.0 0.0 0.00 0.00 0.00 1011.8
20260831141718 68 315 0.0 1.0 0.00 0.00 0.00 1011.7
20260831140719 66 45 0.0 0.0 0.00 0.00 0.00 1011.6
20260831140618 66 0 0.0 0.0 0.00 0.00 0.00 1011.7
20260831140519 66 22 0.0 0.0 0.00 0.00 0.00 1011.6
20260831140418 66 0 0.0 0.0 0.00 0.00 0.00 1011.6
20260831140019 66 22 0.0 1.0 0.00 0.00 0.00 1011.5
20260831135619 65 0 0.0 0.0 0.00 0.00 0.00 1011.3
20260831134319 63 337 0.0 1.0 0.00 0.00 0.00 1011.3
20260831134219 63 315 0.0 1.0 0.00 0.00 0.00 1011.2
20260831134121 63 337 1.0 2.0 0.00 0.00 0.00 1011.3
20260831134019 63 337 0.0 1.0 0.00 0.00 0.00 1011.1
20260831133618 63 0 1.0 1.0 0.00 0.00 0.00 1011.1
20260831133519 63 337 0.0 1.0 0.00 0.00 0.00 1011.1
20260831133118 63 22 0.0 0.0 0.00 0.00 0.00 1011.0
20260831133018 63 315 0.0 0.0 0.00 0.00 0.00 1011.1
20260831132918 63 337 1.0 2.0 0.00 0.00 0.00 1011.0
20260831131918 61 0 1.0 1.0 0.00 0.00 0.00 1011.1
20260831130918 62 45 0.0 1.0 0.00 0.00 0.00 1011.0
20260831130819 62 45 0.0 1.0 0.00 0.00 0.00 1010.9
20260831130419 62 225 0.0 0.0 0.00 0.00 0.00 1011.1
20260831130019 62 225 0.0 0.0 0.00 0.00 0.00 1010.9
20260831125918 62 225 0.0 0.0 0.00 0.00 0.00 1010.8
20260831125218 62 225 0.0 0.0 0.00 0.00 0.00 1010.9
20260831125119 62 225 0.0 0.0 0.00 0.00 0.00 1010.8
20260831124718 62 225 0.0 0.0 0.00 0.00 0.00 1011.1
20260831124319 62 225 0.0 0.0 0.00 0.00 0.00 1010.9
20260831124219 62 225 0.0 0.0 0.00 0.00 0.00 1011.0
20260831124119 62 225 0.0 0.0 0.00 0.00 0.00 1010.9
20260831124019 62 225 0.0 0.0 0.00 0.00 0.00 1010.8
20260831123618 62 225 0.0 0.0 0.00 0.00 0.00 1010.9
20260831121419 62 247 0.0 0.0 0.00 0.00 0.00 1010.9
20260831121018 63 247 0.0 0.0 0.00 0.00 0.00 1010.9
20260831120919 63 247 0.0 0.0 0.00 0.00 0.00 1010.8
20260831120819 62 247 0.0 0.0 0.00 0.00 0.00 1010.9
20260831120118 62 270 0.0 0.0 0.00 0.00 0.00 1011.0
20260831120019 62 270 0.0 0.0 0.00 0.00 0.00 1010.8
20260831115919 62 270 0.0 0.0 0.00 0.00 0.00 1010.7
20260831115518 62 337 0.0 0.0 0.00 0.00 0.00 1010.8
20260831115419 62 315 0.0 0.0 0.00 0.00 0.00 1010.7
20260831115319 62 315 0.0 0.0 0.00 0.00 0.00 1010.8
20260831115218 62 315 0.0 0.0 0.00 0.00 0.00 1011.0
20260831115119 62 337 0.0 0.0 0.00 0.00 0.00 1010.6
20260831114719 62 292 0.0 0.0 0.00 0.00 0.00 1010.9
20260831114318 62 337 0.0 0.0 0.00 0.00 0.00 1010.7
20260831113918 62 337 0.0 0.0 0.00 0.00 0.00 1010.7
20260831113819 62 337 0.0 0.0 0.00 0.00 0.00 1010.9
20260831113719 62 337 0.0 0.0 0.00 0.00 0.00 1011.0
20260831113619 62 337 0.0 0.0 0.00 0.00 0.00 1010.7
20260831113519 62 337 0.0 0.0 0.00 0.00 0.00 1010.8
20260831113419 62 337 0.0 0.0 0.00 0.00 0.00 1010.6
20260831113319 62 337 0.0 0.0 0.00 0.00 0.00 1010.8
20260831113219 62 337 0.0 0.0 0.00 0.00 0.00 1010.9
20260831113119 62 337 0.0 0.0 0.00 0.00 0.00 1010.8
20260831112718 62 337 0.0 0.0 0.00 0.00 0.00 1011.1
20260831112619 63 337 0.0 0.0 0.00 0.00 0.00 1011.1
20260831112219 63 337 0.0 0.0 0.00 0.00 0.00 1010.8
20260831111818 63 270 0.0 0.0 0.00 0.00 0.00 1010.7
20260831111719 63 270 0.0 0.0 0.00 0.00 0.00 1011.1
20260831111319 63 270 0.0 0.0 0.00 0.00 0.00 1011.0
20260831111218 63 270 0.0 0.0 0.00 0.00 0.00 1010.9
20260831111118 63 270 0.0 0.0 0.00 0.00 0.00 1011.0
20260831111018 63 270 0.0 0.0 0.00 0.00 0.00 1010.8
20260831110919 63 270 0.0 0.0 0.00 0.00 0.00 1010.8
20260831110818 63 270 0.0 0.0 0.00 0.00 0.00 1010.8
20260831110419 63 270 0.0 0.0 0.00 0.00 0.00 1010.8
20260831110319 63 270 0.0 0.0 0.00 0.00 0.00 1010.8
20260831105918 63 270 0.0 0.0 0.00 0.00 0.00 1010.8
20260831105819 63 270 0.0 0.0 0.00 0.00 0.00 1010.8
20260831105419 63 270 0.0 0.0 0.00 0.00 0.00 1010.7
20260831105019 63 225 0.0 0.0 0.00 0.00 0.00 1010.8
20260831103718 63 225 0.0 0.0 0.00 0.00 0.00 1010.9
20260831103319 63 225 0.0 0.0 0.00 0.00 0.00 1011.0
20260831102618 64 225 0.0 0.0 0.00 0.00 0.00 1010.9
20260831102219 64 225 0.0 0.0 0.00 0.00 0.00 1010.9
20260831102118 64 225 0.0 0.0 0.00 0.00 0.00 1010.9
20260831101719 64 225 0.0 0.0 0.00 0.00 0.00 1010.9
20260831101619 64 225 0.0 0.0 0.00 0.00 0.00 1010.8
20260831101218 64 202 0.0 0.0 0.00 0.00 0.00 1010.9
20260831101119 64 202 0.0 0.0 0.00 0.00 0.00 1010.9
20260831101019 64 202 0.0 0.0 0.00 0.00 0.00 1011.1
20260831100919 64 202 0.0 0.0 0.00 0.00 0.00 1011.0
20260831100819 64 292 0.0 0.0 0.00 0.00 0.00 1010.9
20260831100118 64 292 0.0 0.0 0.00 0.00 0.00 1011.1
20260831095119 64 292 0.0 0.0 0.00 0.00 0.00 1011.1
20260831095018 64 292 0.0 0.0 0.00 0.00 0.00 1011.0
20260831094619 64 292 0.0 0.0 0.00 0.00 0.00 1011.0
20260831094519 64 292 0.0 0.0 0.00 0.00 0.00 1010.9
20260831094419 64 292 0.0 0.0 0.00 0.00 0.00 1010.8
20260831094319 64 292 0.0 0.0 0.00 0.00 0.00 1010.8
20260831093919 64 292 0.0 0.0 0.00 0.00 0.00 1011.1
20260831093819 64 292 0.0 0.0 0.00 0.00 0.00 1011.0
20260831093419 64 292 0.0 0.0 0.00 0.00 0.00 1010.7
20260831093319 64 292 0.0 0.0 0.00 0.00 0.00 1010.7
20260831093218 65 292 0.0 0.0 0.00 0.00 0.00 1010.9
20260831093119 65 292 0.0 0.0 0.00 0.00 0.00 1010.9
20260831092118 65 157 0.0 0.0 0.00 0.00 0.00 1010.7
20260831090819 65 247 0.0 0.0 0.00 0.00 0.00 1010.8
20260831090719 65 247 0.0 0.0 0.00 0.00 0.00 1010.8
20260831090618 65 247 0.0 0.0 0.00 0.00 0.00 1010.8
20260831085619 65 270 0.0 0.0 0.00 0.00 0.00 1011.0
20260831085518 65 270 0.0 0.0 0.00 0.00 0.00 1010.9
20260831084818 66 315 0.0 0.0 0.00 0.00 0.00 1011.0
20260831084719 66 315 0.0 0.0 0.00 0.00 0.00 1010.8
20260831084619 66 315 0.0 0.0 0.00 0.00 0.00 1011.0
20260831084519 66 315 0.0 0.0 0.00 0.00 0.00 1011.1
20260831084119 66 292 0.0 0.0 0.00 0.00 0.00 1010.9
20260831084019 66 315 0.0 0.0 0.00 0.00 0.00 1010.9
20260831083919 66 315 0.0 0.0 0.00 0.00 0.00 1011.1
20260831083219 66 180 0.0 0.0 0.00 0.00 0.00 1010.7
20260831082819 66 202 0.0 0.0 0.00 0.00 0.00 1010.8
20260831081219 66 180 0.0 0.0 0.00 0.00 0.00 1011.0
20260831081119 66 180 0.0 0.0 0.00 0.00 0.00 1010.7
20260831081019 66 180 0.0 0.0 0.00 0.00 0.00 1010.8
20260831080318 67 180 0.0 0.0 0.00 0.00 0.00 1011.1
20260831075919 67 180 0.0 0.0 0.00 0.00 0.00 1011.2
20260831075818 67 180 0.0 0.0 0.00 0.00 0.00 1010.8
20260831075118 68 180 0.0 0.0 0.00 0.00 0.00 1011.3
20260831075019 68 180 0.0 0.0 0.00 0.00 0.00 1011.2
20260831074919 68 180 0.0 0.0 0.00 0.00 0.00 1010.8
20260831074819 68 180 0.0 0.0 0.00 0.00 0.00 1010.8
20260831074719 68 180 0.0 0.0 0.00 0.00 0.00 1010.9
20260831074619 68 180 0.0 0.0 0.00 0.00 0.00 1010.8
20260831074218 68 202 0.0 0.0 0.00 0.00 0.00 1011.0
20260831074119 68 202 0.0 0.0 0.00 0.00 0.00 1011.1
20260831073718 68 180 0.0 0.0 0.00 0.00 0.00 1010.9
20260831073618 68 180 0.0 0.0 0.00 0.00 0.00 1010.7
20260831073218 68 225 2.0 2.0 0.00 0.00 0.00 1010.9
20260831073118 68 202 1.0 2.0 0.00 0.00 0.00 1011.0
20260831073018 68 225 0.0 0.0 0.00 0.00 0.00 1010.8
20260831072618 68 247 0.0 0.0 0.00 0.00 0.00 1010.8
20260831072218 68 157 0.0 0.0 0.00 0.00 0.00 1010.9